2023/11/03 00:00:00, 0.1, 7.5
2023/11/03 00:10:00, 0.1, 7.3
2023/11/03 00:20:00, 0.1, 7.9
2023/11/03 00:30:00, 0.1, 7.7
2023/11/03 00:40:00, 0.1, 7.7
2023/11/03 00:50:00, 0.1, 7.2
2023/11/03 01:00:00, 0.1, 7.2
2023/11/03 01:10:00, 0.1, 7.0
2023/11/03 01:20:00, 0.2, 6.8
2023/11/03 01:30:00, 0.2, 6.8
2023/11/03 01:40:00, 0.2, 6.6
2023/11/03 01:50:00, 0.1, 6.6
2023/11/03 02:00:00, 0.1, 6.7
2023/11/03 02:10:00, 0.1, 6.5
2023/11/03 02:20:00, 0.2, 6.8
2023/11/03 02:30:00, 0.2, 6.9
2023/11/03 02:40:00, 0.1, 6.8
2023/11/03 02:50:00, 0.2, 6.7
2023/11/03 03:00:00, 0.2, 6.8
2023/11/03 03:10:00, 0.1, 6.9
2023/11/03 03:20:00, 0.1, 6.8
2023/11/03 03:30:00, 0.2, 6.5
2023/11/03 03:40:00, 0.2, 6.0
2023/11/03 03:50:00, 0.2, 6.0
2023/11/03 04:00:00, 0.2, 6.4
2023/11/03 04:10:00, 0.2, 6.3
2023/11/03 04:20:00, 0.2, 6.9
2023/11/03 04:30:00, 0.2, 6.2
2023/11/03 04:40:00, 0.2, 6.5
2023/11/03 04:50:00, 0.2, 6.6
2023/11/03 05:00:00, 0.2, 6.6
2023/11/03 05:10:00, 0.2, 6.4
2023/11/03 05:20:00, 0.2, 6.2
2023/11/03 05:30:00, 0.2, 6.4
2023/11/03 05:40:00, 0.1, 6.3
2023/11/03 05:50:00, 0.1, 6.2
2023/11/03 06:00:00, 0.2, 5.8
2023/11/03 06:10:00, 0.1, 5.8
2023/11/03 06:20:00, 0.1, 6.3
2023/11/03 06:30:00, 0.1, 6.6
2023/11/03 06:40:00, 0.1, 6.8
2023/11/03 06:50:00, 0.2, 6.1
2023/11/03 07:00:00, 0.2, 6.5
2023/11/03 07:10:00, 0.1, 6.7
2023/11/03 07:20:00, 0.1, 6.8
2023/11/03 07:30:00, 0.1, 6.8
2023/11/03 07:40:00, 0.1, 7.8
2023/11/03 07:50:00, 0.1, 8.6
2023/11/03 08:00:00, 0.1,10.1
2023/11/03 08:10:00, 0.1,10.4
2023/11/03 08:20:00, 0.0,11.3
2023/11/03 08:30:00, 0.1,11.9
2023/11/03 08:40:00, 0.0,11.7
2023/11/03 08:50:00, 0.0,12.8
2023/11/03 09:00:00, 0.1,20.1
2023/11/03 09:10:00, 0.0,23.6
2023/11/03 09:20:00, 0.0,25.2
2023/11/03 09:30:00, 0.3,24.0
2023/11/03 09:40:00, 0.2,25.7
2023/11/03 09:50:00, 0.3,25.9
2023/11/03 10:00:00, 0.0,26.2
2023/11/03 10:10:00, 0.0,25.9
2023/11/03 10:20:00, 0.0,25.8
2023/11/03 10:30:00, 0.3,25.4
2023/11/03 10:40:00, 0.5,25.0
2023/11/03 10:50:00, 0.5,24.5
2023/11/03 11:00:00, 0.6,23.7
2023/11/03 11:10:00, 0.5,22.2
2023/11/03 11:20:00, 0.4,20.5
2023/11/03 11:30:00, 0.7,20.3
2023/11/03 11:40:00, 0.3,19.9
2023/11/03 11:50:00, 0.1,19.5
2023/11/03 12:00:00, 0.3,20.0
2023/11/03 12:10:00, 0.4,19.7
2023/11/03 12:20:00, 0.4,20.0
2023/11/03 12:30:00, 0.0,20.0
2023/11/03 12:40:00, 0.3,19.9
2023/11/03 12:50:00, 0.5,19.8
2023/11/03 13:00:00, 0.4,20.0
2023/11/03 13:10:00, 0.5,20.3
2023/11/03 13:20:00, 0.5,20.9
2023/11/03 13:30:00, 0.4,21.2
2023/11/03 13:40:00, 0.4,21.3
2023/11/03 13:50:00, 0.2,20.8
2023/11/03 14:00:00, 0.0,19.5
2023/11/03 14:10:00, 0.1,19.0
2023/11/03 14:20:00, 0.1,19.0
2023/11/03 14:30:00, 0.2,18.1
2023/11/03 14:40:00, 0.1,17.7
2023/11/03 14:50:00, 0.0,16.3
2023/11/03 15:00:00, 0.0,15.6
2023/11/03 15:10:00, 0.0,14.4
2023/11/03 15:20:00, 0.0,14.2
2023/11/03 15:30:00, 0.0,14.4
2023/11/03 15:40:00, 0.0,13.7
2023/11/03 15:50:00, 0.0,13.2
2023/11/03 16:00:00, 0.0,13.0
2023/11/03 16:10:00, 0.0,12.9
2023/11/03 16:20:00, 0.0,12.8
2023/11/03 16:30:00, 0.1,12.8
2023/11/03 16:40:00, 0.1,12.3
2023/11/03 16:50:00, 0.1,12.0
2023/11/03 17:00:00, 0.1,11.6
2023/11/03 17:10:00, 0.1,10.9
2023/11/03 17:20:00, 0.2,10.5
2023/11/03 17:30:00, 0.2,11.5
2023/11/03 17:40:00, 0.1,11.8
2023/11/03 17:50:00, 0.1,11.7
2023/11/03 18:00:00, 0.1,11.7
2023/11/03 18:10:00, 0.2,11.6
2023/11/03 18:20:00, 0.2,11.5
2023/11/03 18:30:00, 0.2,10.8
2023/11/03 18:40:00, 0.2,10.8
2023/11/03 18:50:00, 0.2,10.8
2023/11/03 19:00:00, 0.2,10.6
2023/11/03 19:10:00, 0.2,10.2
2023/11/03 19:20:00, 0.2, 9.8
2023/11/03 19:30:00, 0.2,10.0
2023/11/03 19:40:00, 0.2, 9.6
2023/11/03 19:50:00, 0.2,10.1
2023/11/03 20:00:00, 0.2, 9.8
2023/11/03 20:10:00, 0.2, 9.6
2023/11/03 20:20:00, 0.2, 9.6
2023/11/03 20:30:00, 0.2, 9.6
2023/11/03 20:40:00, 0.2, 9.5
2023/11/03 20:50:00, 0.2, 9.2
2023/11/03 21:00:00, 0.1, 9.0
2023/11/03 21:10:00, 0.1, 9.2
2023/11/03 21:20:00, 0.1, 9.2
2023/11/03 21:30:00, 0.1, 8.9
2023/11/03 21:40:00, 0.1, 8.9
2023/11/03 21:50:00, 0.1, 8.4
2023/11/03 22:00:00, 0.1, 8.7
2023/11/03 22:10:00, 0.1, 8.3
2023/11/03 22:20:00, 0.1, 8.4
2023/11/03 22:30:00, 0.1, 8.0
2023/11/03 22:40:00, 0.1, 8.3
2023/11/03 22:50:00, 0.1, 8.0
2023/11/03 23:00:00, 0.1, 7.7
2023/11/03 23:10:00, 0.0, 7.7
2023/11/03 23:20:00, 0.1, 7.8
2023/11/03 23:30:00, 0.0, 7.5
2023/11/03 23:40:00, 0.0, 7.1
2023/11/03 23:50:00, 0.0, 7.2
